STARLINK-32753, 62481

Orbit data source: Space-Track

STARLINK-32753, 62481 is a payload satellite owned by SpaceX/Seattle (US) in LEO that was launched on Tue, 31 Dec 2024 UTC via an FALCON 9 launch vehicle from the Air Force Eastern Test Range (AFETR). Payload-class satellites include a variety of spacecraft equipped with specific instruments for various scientific and technological missions. These include communications satellites like Starlink; space stations such as the ISS; scientific satellites like the Hubble; Earth observation satellites from companies like Planet Labs, Umbra, and HawkEye 360; GPS; miniature CubeSats for education and research; and military/defense satellites.

Loading next visibility...
Identifier
62481, 2024-254V
Orbit
LEO
Country
Flag of USUS
Related business
Manufacturer
SpaceX/Seattle
Mission
Operational Commercial Communications
Bus & Motor
STARLINK V2M, Unknown motor
Mass
730 kg wet, ~700 kg dry
Launch date (UTC)
2024-12-31 (10 months ago)
Launch vehicle
FALCON 9
Launch site
Air Force Eastern Test Range (AFETR)
Object type
Payload
Rocket body
Debris
Shape & HBR
Box + 2 Pan, 17.7 m
Radar Cross Section
33.884 m², Large (>1 m²)

Expand to show TLE details & history
Last TLE update: 15 hours ago

TLE from 15 hours ago
0 STARLINK-32753
1 62481U 24254V   25292.17667548  .00013818  00000-0  51031-3 0  9996
2 62481  43.0027  95.2777 0002168 265.9907  94.0697 15.27604700 46019
Epoch: 2025-10-19T04:14Z
TLE epoch observation values (Epoch: 2025-10-19T04:14:24.761Z)
Latitude
-0.00001°
Longitude
3.77743°
Altitude
482.857 km
Speed
7.626 km/s
True Right ascension
06h 21m 06s
True Declination
0° 00' 00"
Sunlit
Object was in daylight at epoch
Visualization orbit readout
Latitude
Unknown
Longitude
Unknown
Altitude
Unknown
Speed
Unknown
Apparent Right ascension
Unknown
Apparent Declination
Unknown
Sunlit
N/A
Visualization observer readout
Local Sidereal Time
14:20:41
Azimuth
Unknown
Elevation
Unknown
Doppler factor
Unknown
Orbital elements
Apogee altitude
486.408 km
Perigee altitude
483.432 km
Semi-major axis
6,863.057 km
Eccentricity
0.00022
Inclination
43.0027°
RAAN
95.2777°
Arg. of periapsis
265.9907°
True anomaly
94.09448°
Mean anomaly
94.0697°
Eccentric anomaly
94.08209°
Mean motion
3.81739 °/min
Orbital period
94.31 mins
BSTAR
0.00051031
Loading maneuver chart data...
Computing Atmospheric mass density...
Loading historical data...
Loading historical data...
Loading historical data...
Loading historical data...
Loading historical data...
Loading historical data...
Loading historical data...

Documentation

Showing up to 5 results
|